Meteopurmerend
purmerend
Purmerend - Baaienwijk



My webcam  My webcam


waarschuwing voor Onweer Meer informatie blitzortung!


Regen radar Meer informatie rain snow radar


Bezoek onze andere website:

CandyAppleRed WebdesignWebdesign Purmerend Candy Apple Red

MeteopurmerendBlog

Template documentation
and downloads



Onweer van: 19-06-2019 10:00 tot: 23:00 waarschuwing voor: Onweer niveau: Geel info button
Enkele onweersbuien, mogelijk met hagel en windstoten tot ca. 75 km/uur.Verkeer en buitenactiviteiten kunnen hinder ondervinden.Mijd open water en open gebied, schuil niet onder bomen.Volg weerberichten en waarschuwingen.

15 daagse weersverwachting Monza (IT)

  • Overzicht
  • Per uur
  • 15 dagen
  • Extra
  • Vergelijk
  • Kaarten
  • Dagkaart
  • Meer »
  • Info
  • Statistieken
  • Directe link
    Temp 6h Neerslag Wind  
 05:35     21:15    Daglengte: 15:40 Vandaag
14:00
28°
 
2
20:00
27°
 
2
 05:35     21:15    Daglengte: 15:40 Morgen
02:00
21°
 
2
08:00
21°
 
2
14:00
28°
 
2
20:00
27°
 
2
 05:35     21:15    Daglengte: 15:40 Vrijdag 21 Jun
02:00
20°
 
2
08:00
21°
 
1
14:00
27°
 
1
20:00
27°
 
2
 05:35     21:15    Daglengte: 15:40 Zaterdag 22 Jun
02:00
21°
1.8 mm
2
08:00
20°
12.4 mm
2
warningclass
Locatie info
Region: Lombardia
Latitude: 45.5841°N
Longitude: 9.2710°E
171 masl
Postcode: 20900
Temp/Neerslag /Baro Onweer/Dauwpunt
    Temp Baro 1h Neerslag Dauwpunt Wind UV Bewolking  
 05:35     21:15    Daglengte: 15:40 Vandaag
14:00
28°
1012.5 hPa
45%
16.7°
2
Windvlaag: 1.6 m/s
7%
15:00
29°
1011.7 hPa
63%
16.9°
2
Windvlaag: 1.7 m/s
8%
16:00
29°
1011.2 hPa
63%
17.3°
2
Windvlaag: 1.6 m/s
15%
17:00
29°
1011.1 hPa
61%
17.4°
2
Windvlaag: 1.7 m/s
14%
18:00
29°
1010.7 hPa
16%
18.4°
2
Windvlaag: 1.6 m/s
27%
19:00
28°
1010.6 hPa
19%
17.8°
2
Windvlaag: 1.4 m/s
43%
20:00
27°
1010.7 hPa
14%
18.4°
2
Windvlaag: 1.4 m/s
29%
21:00
26°
1011.1 hPa
47%
17.9°
2
Windvlaag: 1.5 m/s
28%
22:00
24°
1011.5 hPa   16.4°
2
Windvlaag: 1.5 m/s
13%
23:00
23°
1011.9 hPa   15.5°
2
Windvlaag: 0.8 m/s
18%
 05:35     21:15    Daglengte: 15:40 Morgen
00:00
22°
1011.9 hPa   14.5°
2
Windvlaag: 0.5 m/s
48%
01:00
21°
1012.1 hPa   13.5°
2
Windvlaag: 0 m/s
22%
02:00
21°
1012.2 hPa   12.2°
2
Windvlaag: 0.1 m/s
15%
03:00
20°
1012.2 hPa   12.6°
2
Windvlaag: 0.1 m/s
14%
04:00
19°
1012.0 hPa   13.4°
2
Windvlaag: 0 m/s
17%
05:00
19°
1012.0 hPa   13.7°
2
Windvlaag: -0.1 m/s
17%
06:00
19°
1012.2 hPa
13%
13.7°
2
Windvlaag: -0 m/s
29%
07:00
20°
1012.5 hPa
18%
14.7°
2
Windvlaag: 0 m/s
35%
08:00
21°
1012.7 hPa
15%
14.7°
2
Windvlaag: -0.3 m/s
37%
09:00
23°
1012.7 hPa
15%
15.2°
1
Windvlaag: -0.8 m/s
13%
10:00
24°
1012.6 hPa   15.7°
2
Windvlaag: -0.4 m/s
15%
11:00
25°
1012.6 hPa
11%
15.9°
2
Windvlaag: -0.3 m/s
7%
12:00
26°
1012.5 hPa
15%
15.5°
2
Windvlaag: 0.6 m/s
4%
13:00
28°
1012.2 hPa
14%
15.2°
2
Windvlaag: 1.2 m/s
7%
14:00
28°
1011.9 hPa
14%
15.8°
2
Windvlaag: 1.3 m/s
18%
15:00
29°
1011.5 hPa
16%
16.3°
2
Windvlaag: 1 m/s
29%
16:00
29°
1011.1 hPa
22%
16.3°
2
Windvlaag: 0.7 m/s
35%
17:00
29°
1010.9 hPa
23%
16.0°
2
Windvlaag: 0 m/s
34%
18:00
29°
1010.8 hPa
63%
16.5°
3
Windvlaag: 1.1 m/s
35%
19:00
28°
1011.1 hPa
58%
16.3°
3
Windvlaag: 1.8 m/s
52%
20:00
27°
1011.4 hPa
50%
16.7°
2
Windvlaag: 1.8 m/s
41%
21:00
25°
1011.5 hPa
15%
16.7°
2
Windvlaag: 2 m/s
29%
22:00
24°
1012.2 hPa
14%
16.5°
2
Windvlaag: 1.8 m/s
29%
23:00
22°
1012.7 hPa
16%
16.1°
2
Windvlaag: 1.4 m/s
37%
 05:35     21:15    Daglengte: 15:40 Vrijdag 21 Jun
00:00
21°
1013.1 hPa
15%
14.4°
2
Windvlaag: 1 m/s
48%
01:00
21°
1013.3 hPa
14%
14.3°
2
Windvlaag: 0.9 m/s
50%
02:00
20°
1013.4 hPa
13%
15.0°
2
Windvlaag: 0.7 m/s
58%
03:00
20°
1013.5 hPa
13%
14.9°
1
Windvlaag: 0.6 m/s
69%
04:00
20°
1013.4 hPa
13%
15.0°
1
Windvlaag: 0.2 m/s
67%
05:00
19°
1013.5 hPa
13%
15.0°
1
Windvlaag: -0 m/s
75%
06:00
19°
1013.8 hPa
13%
15.5°
1
Windvlaag: -0.1 m/s
73%
07:00
20°
1014.2 hPa
13%
15.5°
1
Windvlaag: 0.2 m/s
59%
08:00
21°
1014.5 hPa
15%
16.4°
1
Windvlaag: 0.2 m/s
65%
09:00
22°
1014.8 hPa
31%
17.6°
2
Windvlaag: 0.5 m/s
31%
10:00
24°
1014.9 hPa
33%
18.3°
2
Windvlaag: 1.6 m/s
32%
11:00
24°
1014.9 hPa
97%
18.2°
1
Windvlaag: 1.3 m/s
65%
12:00
25°
1014.9 hPa
88%
18.7°
1
Windvlaag: 1.5 m/s
48%
13:00
26°
1014.4 hPa
79%
18.3°
1
Windvlaag: 1.7 m/s
19%
14:00
27°
1013.8 hPa
82%
18.5°
1
Windvlaag: 1.4 m/s
28%
15:00
28°
1013.3 hPa
31%
18.8°
1
Windvlaag: 1.7 m/s
45%
16:00
28°
1012.7 hPa
33%
19.1°
1
Windvlaag: 2.2 m/s
76%
17:00
28°
1012.5 hPa
42%
19.5°
2
Windvlaag: 2.1 m/s
69%
18:00
28°
1012.4 hPa
44%
20.5°
2
Windvlaag: 1.7 m/s
75%
19:00
27°
1012.9 hPa
87%
20.0°
2
Windvlaag: 1.2 m/s
65%
20:00
27°
1013.0 hPa
72%
20.4°
2
Windvlaag: 1.2 m/s
69%
21:00
25°
1013.1 hPa
21%
20.7°
2
Windvlaag: 1 m/s
73%
22:00
24°
1013.5 hPa
22%
20.3°
2
Windvlaag: 1.2 m/s
66%
23:00
23°
1013.8 hPa
28%
19.5°
2
Windvlaag: 0.3 m/s
68%
 05:35     21:15    Daglengte: 15:40 Zaterdag 22 Jun
00:00
23°
1013.9 hPa
87%
18.6°
2
Windvlaag: -0.6 m/s
76%
01:00
22°
1014.3 hPa
100%
18.0°
2
Windvlaag: -0.7 m/s
76%
02:00
21°
1014.6 hPa 1.8 mm
100%
17.8°
2
Windvlaag: -0.7 m/s
76%
03:00
20°
1015.1 hPa 3.0 mm
100%
17.6°
3
Windvlaag: 0.4 m/s
89% warningclass
04:00
20°
1014.9 hPa 1.8 mm
98%
17.4°
2
Windvlaag: 1.1 m/s
84% warningclass
05:00
20°
1014.8 hPa 1.6 mm
92%
17.4°
1
Windvlaag: 0.6 m/s
86%
06:00
20°
1014.7 hPa 2.0 mm
94%
17.4°
2
Windvlaag: 0.4 m/s
83%
07:00
20°
1014.6 hPa 1.2 mm
100%
17.2°
2
Windvlaag: 0.1 m/s
75%
08:00
20°
1015.2 hPa 2.8 mm
100%
16.6°
2
Windvlaag: 0.2 m/s
87% warningclass
09:00
20°
1015.4 hPa 3.2 mm
100%
16.4°
2
Windvlaag: 3.6 m/s
89%
10:00
21°
1015.3 hPa
99%
16.4°
2
Windvlaag: 2.3 m/s
88%
11:00
21°
1015.3 hPa 4.2 mm
100%
16.4°
2
Windvlaag: 2.4 m/s
87% warningclass
12:00
22°
1015.2 hPa 3.8 mm
100%
16.4°
1
Windvlaag: 2.6 m/s
86% warningclass
13:00
22°
1015.2 hPa 3.1 mm
100%
16.4°
1
Windvlaag: 2.9 m/s
86% warningclass
Temp/Neerslag /Baro Onweer/Dauwpunt
    Temp Baro Neerslag Dauwpunt Wind Bewolking  
 05:35     21:15    Daglengte: 15:40 Vandaag
14:00
28°
1012.5 hPa   16.7°
2
7%
17:00
29°
1011.1 hPa   17.4°
2
14%
20:00
27°
1010.7 hPa   18.4°
2
29%
23:00
23°
1011.9 hPa   15.5°
2
18%
 05:35     21:15    Daglengte: 15:40 Morgen
02:00
21°
1012.2 hPa   12.2°
2
15%
05:00
19°
1012.0 hPa   13.7°
2
17%
08:00
21°
1012.7 hPa   14.7°
2
37%
11:00
25°
1012.6 hPa   15.9°
2
7%
14:00
28°
1011.9 hPa   15.8°
2
18%
17:00
29°
1010.9 hPa   16.0°
2
34%
20:00
27°
1011.4 hPa   16.7°
2
41%
23:00
22°
1012.7 hPa   16.1°
2
37%
 05:35     21:15    Daglengte: 15:40 Vrijdag 21 Jun
02:00
20°
1013.4 hPa   15.0°
2
58%
05:00
19°
1013.5 hPa   15.0°
1
75%
08:00
21°
1014.5 hPa   16.4°
1
65%
11:00
24°
1014.9 hPa   18.2°
1
65%
14:00
27°
1013.8 hPa   18.5°
1
28%
17:00
28°
1012.5 hPa   19.5°
2
69%
20:00
27°
1013.0 hPa   20.4°
2
69%
23:00
23°
1013.8 hPa   19.5°
2
68%
 05:35     21:15    Daglengte: 15:40 Zaterdag 22 Jun
02:00
21°
1014.6 hPa 1.8 mm 17.8°
2
76%
05:00
20°
1014.8 hPa 6.4 mm 17.4°
1
86%
08:00
20°
1015.2 hPa 6.0 mm 16.6°
2
87% warningclass
11:00
21°
1015.3 hPa 7.4 mm 16.4°
2
87% warningclass
14:00
23°
1015.1 hPa 10.2 mm 16.3°
1
86% warningclass
17:00
22°
1014.4 hPa 23.8 mm 17.3°
1
88%
20:00
21°
1014.0 hPa 24.5 mm 17.4°
2
89%
23:00
19°
1014.5 hPa 26.4 mm 17.1°
1
86%
 05:36     21:16    Daglengte: 15:40 Zondag 23 Jun
02:00
17°
1014.9 hPa 26.7 mm 16.5°
1
82%
05:00
18°
1015.0 hPa 26.7 mm 16.7°
1
72%
08:00
19°
1015.2 hPa 26.7 mm 17.0°
1
61%
11:00
23°
1015.3 hPa 26.7 mm 17.6°
1
32%
14:00
26°
1015.5 hPa 26.7 mm 17.3°
1
3%
17:00
26°
1015.2 hPa 26.7 mm 18.5°
1
3%
20:00
26°
1015.0 hPa 26.7 mm 19.4°
1
4%
23:00
23°
1016.5 hPa 26.7 mm 18.6°
1
7%
 05:36     21:16    Daglengte: 15:40 Maandag 24 Jun
02:00
20°
1017.8 hPa 26.7 mm 17.5°
2
11%
05:00
21°
1018.3 hPa 26.7 mm 18.0°
2
5%
08:00
23°
1018.9 hPa 26.7 mm 18.5°
2
0%
11:00
26°
1018.9 hPa 26.7 mm 18.8°
1
8%
14:00
29°
1018.9 hPa 26.7 mm 18.4°
0
16%
17:00
28°
1018.6 hPa 26.7 mm 19.7°
1
10%
20:00
27°
1018.5 hPa 26.7 mm 20.7°
1
4%
23:00
25°
1020.0 hPa 26.7 mm 19.4°
2
4%
 05:36     21:16    Daglengte: 15:40 Dinsdag 25 Jun
02:00
22°
1021.3 hPa 26.7 mm 18.0°
2
4%
05:00
23°
1021.5 hPa 26.7 mm 18.5°
2
14%
08:00
24°
1021.7 hPa 26.7 mm 18.9°
2
24%
11:00
27°
1021.5 hPa 26.7 mm 19.0°
2
23%
14:00
30°
1021.3 hPa 26.7 mm 18.5°
1
21%
17:00
29°
1020.8 hPa 26.7 mm 19.6°
2
13%
20:00
28°
1020.4 hPa 26.7 mm 20.4°
2
6%
23:00
25°
1021.6 hPa 26.7 mm 19.7°
2
3%
 05:37     21:16    Daglengte: 15:39 Woensdag 26 Jun
02:00
22°
1022.7 hPa 26.7 mm 18.7°
2
1%
05:00
24°
1022.5 hPa 26.7 mm 19.5°
2
7%
08:00
25°
1022.4 hPa 26.7 mm 20.5°
2
13%
11:00
28°
1022.3 hPa   20.3°
1
10%
14:00
31°
1022.1 hPa 53.3 mm 19.1°
1
8%
20:00
30°
1020.2 hPa 53.3 mm 21.6°
1
14%
 05:37     21:16    Daglengte: 15:39 Donderdag 27 Jun
02:00
23°
1021.0 hPa 53.3 mm 20.2°
2
1%
08:00
26°
1020.4 hPa 53.3 mm 21.3°
1
0%
14:00
32°
1018.5 hPa 53.3 mm 20.7°
1
0%
20:00
31°
1015.8 hPa 53.4 mm 22.3°
1
9%
 05:38     21:16    Daglengte: 15:38 Vrijdag 28 Jun
02:00
23°
1016.9 hPa 53.4 mm 21.3°
2
0%
08:00
27°
1016.7 hPa 53.4 mm 21.8°
1
0%
14:00
34°
1015.5 hPa 53.4 mm 21.5°
1
0%
20:00
32°
1013.6 hPa 53.4 mm 23.8°
2
1%
 05:38     21:16    Daglengte: 15:38 Zaterdag 29 Jun
02:00
25°
1014.3 hPa 53.4 mm 21.6°
2
3%
08:00
23°
1013.8 hPa   16.3°
1
12%
14:00
30°
1012.0 hPa   16.4°
2
7%
20:00
28°
1012.0 hPa   19.4°
1
14%
 05:39     21:15    Daglengte: 15:36 Zondag 30 Jun
02:00
20°
1013.9 hPa   14.7°
1
19%
08:00
22°
1013.8 hPa   16.2°
1
9%
14:00
29°
1012.3 hPa   16.2°
2
8%
20:00
28°
1012.2 hPa   19.4°
1
20%
 05:39     21:15    Daglengte: 15:36 Maandag 01 Jul
02:00
20°
1013.8 hPa 0.1 mm 15.0°
1
28%
08:00
22°
1013.4 hPa 0.1 mm 15.9°
1
15%
14:00
28°
Voelt als: 28.3°
1011.6 hPa 0.3 mm 14.7°
1
6%
20:00
27°
1011.7 hPa 0.5 mm 17.7°
1
17%
 05:40     21:15    Daglengte: 15:35 Dinsdag 02 Jul
02:00
19°
1013.6 hPa 0.3 mm 13.1°
2
17%
08:00
20°
1013.5 hPa 0.2 mm 14.4°
2
7%
14:00
27°
Voelt als: 27.4°
1011.8 hPa 0.2 mm 13.8°
1
6%
20:00
26°
1011.9 hPa 0.3 mm 17.6°
1
9%
 05:40     21:15    Daglengte: 15:35 Woensdag 03 Jul
02:00
18°
1013.9 hPa 0.9 mm 13.0°
2
18%
08:00
20°
1014.1 hPa 0.3 mm 13.9°
2
13%
14:00
27°
1013.0 hPa 0.2 mm 13.0°
1
10%
20:00
25°
1013.3 hPa 0.4 mm 17.0°
1
14%
 05:41     21:15    Daglengte: 15:34 Donderdag 04 Jul
02:00
17°
1015.2 hPa 0.4 mm 12.6°
2
21%
08:00
19°
1015.4 hPa 0.2 mm 13.8°
2
14%
  CAPE Lifted Index Hail Supercell Tornado SRH 3km CL BTM PRES CL TOP PRES Swiss DWD icon SMHI TS
 05:35     21:15    Daglengte: 15:40 Vandaag
14:00 570 J/kg -3.1 K 0 % 0 % 0 % 0 m²/s² 0 0 0.11 0
15:00 503 J/kg -2.8 K 0 % 0 % 0 % 0 m²/s² 0 0 0.32 1
16:00 598 J/kg -3.3 K 0 % 0 % 0 % 0 m²/s² 0 0 -0.75 3
17:00 725 J/kg -3.5 K 0 % 0 % 0 % 0 m²/s² 0 0 -0.86 0
18:00 1007 J/kg -4.2 K 0 % 0 % 0 % 0 m²/s² 0 0 -1.23 3
19:00 728 J/kg -3.8 K 0 % 0 % 0 % 0 m²/s² 0 0 -1.25 3
20:00 95 J/kg -3.9 K 0 % 0 % 0 % 0 m²/s² 0 0 -1.92 3
21:00 0 J/kg -4.0 K 0 % 0 % 0 % 0 m²/s² 0 0 -1.72 3
22:00 0 J/kg -3.7 K 0 % 0 % 0 % 0 m²/s² 0 0 -1.84 2
23:00 0 J/kg -4.1 K 0 % 0 % 0 % 0 m²/s² 0 0 -2.6 0
 05:35     21:15    Daglengte: 15:40 Morgen
00:00 0 J/kg -3.5 K 0 % 0 % 0 % 0 m²/s² 0 0 -2 3
01:00 0 J/kg -0.8 K 0 % 0 % 0 % 0 m²/s² 0 0 1.54 3
02:00 0 J/kg 0.8 K 0 % 0 % 0 % 0 m²/s² 0 0 3.59 2
03:00 0 J/kg 1.2 K 0 % 0 % 0 % 0 m²/s² 0 0 4.77 3
04:00 0 J/kg 0.7 K 0 % 0 % 0 % 0 m²/s² 0 0 4.06 3
05:00 0 J/kg 0.4 K 0 % 0 % 0 % 0 m²/s² 0 0 3.85 3
06:00 0 J/kg 0.5 K 0 % 0 % 0 % 0 m²/s² 0 0 3.68 3
07:00 0 J/kg -0.1 K 0 % 0 % 0 % 0 m²/s² 0 0 2.84 1
08:00 0 J/kg -0.5 K 0 % 0 % 0 % 0 m²/s² 0 0 2.5 3
09:00 0 J/kg -0.9 K 0 % 0 % 0 % 0 m²/s² 0 0 2.01 2
10:00 2 J/kg -1.3 K 0 % 0 % 0 % 0 m²/s² 0 0 1.88 0
11:00 0 J/kg -1.5 K 0 % 0 % 0 % 0 m²/s² 0 0 1.59 0
12:00 77 J/kg -1.6 K 0 % 0 % 0 % 0 m²/s² 0 0 1.4 0
13:00 303 J/kg -2.3 K 0 % 0 % 0 % 0 m²/s² 0 0 0.46 1
14:00 535 J/kg -3.1 K 0 % 0 % 0 % 0 m²/s² 0 0 -0.73 2
15:00 765 J/kg -3.3 K 0 % 0 % 0 % 0 m²/s² 0 0 -1.26 1
16:00 947 J/kg -3.6 K 0 % 0 % 0 % 0 m²/s² 0 0 -1.86 3
17:00 1016 J/kg -3.4 K 0 % 0 % 0 % 0 m²/s² 0 0 -2.83 3
18:00 1000 J/kg -3.3 K 0 % 0 % 0 % 0 m²/s² 0 0 -2.55 3
19:00 844 J/kg -3.3 K 0 % 0 % 0 % 0 m²/s² 0 0 -1.32 3
20:00 629 J/kg -3.4 K 0 % 0 % 0 % 0 m²/s² 0 0 -1.78 3
21:00 219 J/kg -2.8 K 0 % 0 % 0 % 0 m²/s² 0 0 -1.48 3
22:00 28 J/kg -2.5 K 0 % 0 % 0 % 0 m²/s² 0 0 -1.27 0
23:00 0 J/kg -1.3 K 0 % 0 % 0 % 0 m²/s² 0 0 -0.07 2
 05:35     21:15    Daglengte: 15:40 Vrijdag 21 Jun
00:00 0 J/kg -0.5 K 0 % 0 % 0 % 0 m²/s² 0 0 0.82 3
01:00 0 J/kg -0.6 K 0 % 0 % 0 % 0 m²/s² 0 0 0.63 3
02:00 0 J/kg -1.0 K 0 % 0 % 0 % 0 m²/s² 0 0 0.02 2
03:00 0 J/kg -1.4 K 0 % 0 % 0 % 0 m²/s² 0 0 -0.59 3
04:00 0 J/kg -1.4 K 0 % 0 % 0 % 0 m²/s² 0 0 -0.68 3
05:00 0 J/kg -1.4 K 0 % 0 % 0 % 0 m²/s² 0 0 -0.74 3
06:00 0 J/kg -1.7 K 0 % 0 % 0 % 0 m²/s² 0 0 -1.04 3
07:00 0 J/kg -1.7 K 0 % 0 % 0 % 0 m²/s² 0 0 -1.07 3
08:00 0 J/kg -1.2 K 0 % 0 % 0 % 0 m²/s² 0 0 -0.75 3
09:00 0 J/kg -0.7 K 0 % 0 % 0 % 0 m²/s² 0 0 -0.49 1
10:00 0 J/kg -0.7 K 0 % 0 % 0 % 0 m²/s² 0 0 -0.7 1
11:00 0 J/kg -0.7 K 0 % 0 % 0 % 0 m²/s² 0 0 -0.7 3
12:00 54 J/kg -0.8 K 0 % 0 % 0 % 0 m²/s² 0 0 -0.53 3
13:00 223 J/kg -0.9 K 0 % 0 % 0 % 0 m²/s² 0 0 0.18 1
14:00 249 J/kg -1.2 K 0 % 0 % 0 % 0 m²/s² 0 0 1.35 3
15:00 353 J/kg -1.7 K 0 % 0 % 0 % 0 m²/s² 0 0 1.27 3
16:00 531 J/kg -2.1 K 0 % 0 % 0 % 0 m²/s² 0 0 0.63 3
17:00 685 J/kg -2.6 K 0 % 0 % 0 % 0 m²/s² 0 0 -0.02 3
18:00 811 J/kg -2.9 K 0 % 0 % 0 % 0 m²/s² 0 0 -1.01 3
19:00 1029 J/kg -4.0 K 0 % 0 % 0 % 0 m²/s² 0 0 -2.83 3
20:00 1295 J/kg -4.7 K 0 % 0 % 0 % 0 m²/s² 0 0 -3.77 3
21:00 1060 J/kg -4.5 K 0 % 0 % 0 % 0 m²/s² 0 0 -4.2 3
22:00 472 J/kg -3.7 K 0 % 0 % 0 % 0 m²/s² 0 0 -2.83 3
23:00 162 J/kg -2.7 K 0 % 0 % 0 % 0 m²/s² 0 0 -2.49 3
 05:35     21:15    Daglengte: 15:40 Zaterdag 22 Jun
00:00 0 J/kg -0.6 K 0 % 0 % 0 % 0 m²/s² 0 0 -0.12 3
01:00 0 J/kg -0.5 K 0 % 0 % 0 % 0 m²/s² 0 0 -0.29 3
02:00 0 J/kg -1.2 K 0 % 0 % 0 % 0 m²/s² 0 0 -0.72 80
03:00 0 J/kg -1.1 K 0 % 0 % 0 % 0 m²/s² 0 0 -1.01 95
04:00 0 J/kg -2.5 K 0 % 0 % 0 % 0 m²/s² 0 0 -2.14 95
05:00 0 J/kg -2.3 K 0 % 0 % 0 % 0 m²/s² 0 0 -1.67 3
06:00 0 J/kg -1.7 K 0 % 0 % 0 % 0 m²/s² 0 0 -0.98 3
07:00 0 J/kg -2.5 K 0 % 0 % 0 % 0 m²/s² 0 0 -1.54 3
08:00 207 J/kg -3.0 K 0 % 0 % 0 % 0 m²/s² 0 0 -1.95 95
09:00 574 J/kg -3.1 K 0 % 0 % 0 % 0 m²/s² 0 0 -1.93 80
10:00 800 J/kg -3.7 K 0 % 0 % 0 % 0 m²/s² 0 0 -2.23 3
11:00 1009 J/kg -4.7 K 0 % 0 % 0 % 0 m²/s² 0 0 -2.81 80
12:00 1223 J/kg -5.7 K 0 % 0 % 0 % 0 m²/s² 0 0 -3.12 80
13:00 1468 J/kg -6.7 K 0 % 0 % 0 % 0 m²/s² 0 0 -4.12 95
Temp Baro Wind Neerslag
  EWN Forecast EWN WRFDA DWD ICON FMI HIRLAM MET Norway GFS
 05:35     21:15    Daglengte: 15:40 Vandaag
14:00 28.4° 1012.5 hPa 1.6 m/s 0.0 mm 29.6° 1011.3 hPa 3.0 m/s 0.1 mm 29.9° 1012.5 hPa 0.9 m/s -1.7 mm 28.7° 1013.0 hPa 2.0 m/s 0.0 mm 28.0° 1012.4 hPa 1.1 m/s 0.0 mm 30.9° 1013.0 hPa 2.9 m/s
17:00 29.0° 1011.1 hPa 1.7 m/s 0.0 mm 30.8° 1009.6 hPa 3.8 m/s 0.3 mm 30.8° 1010.6 hPa 2.2 m/s 0.1 mm 29.7° 1011.7 hPa 2.0 m/s 0.0 mm 27.2° 1011.6 hPa 0.8 m/s 0.6 mm 30.7° 1011.5 hPa 3.7 m/s
20:00 27.4° 1010.7 hPa 1.7 m/s 0.0 mm 28.3° 1010.0 hPa 5.6 m/s 0.3 mm 28.8° 1010.4 hPa 1.0 m/s 0.0 mm 27.6° 1011.7 hPa 1.6 m/s 0.0 mm 25.9° 1011.0 hPa 1.2 m/s 0.0 mm 28.2° 1012.0 hPa 3.6 m/s
23:00 22.8° 1011.9 hPa 2.3 m/s 0.0 mm 24.8° 1011.6 hPa 2.9 m/s 0.3 mm 23.6° 1012.1 hPa 2.0 m/s 0.0 mm 22.9° 1012.6 hPa 2.9 m/s 0.0 mm 21.5° 1011.9 hPa 1.3 m/s 0.0 mm 25.1° 1013.9 hPa 2.1 m/s
 05:35     21:15    Daglengte: 15:40 Morgen
02:00 20.5° 1012.2 hPa 1.9 m/s 0.0 mm 22.9° 1012.0 hPa 1.6 m/s 0.3 mm 21.3° 1012.4 hPa 1.8 m/s 0.0 mm 19.4° 1012.8 hPa 1.6 m/s 0.0 mm 19.7° 1012.2 hPa 2.2 m/s 0.0 mm 23.1° 1014.3 hPa 2.5 m/s
05:00 18.9° 1012.0 hPa 1.8 m/s 0.0 mm 21.5° 1011.3 hPa 1.8 m/s 0.3 mm 20.2° 1011.6 hPa 1.3 m/s 0.0 mm 17.5° 1013.1 hPa 1.4 m/s 0.0 mm 17.2° 1012.2 hPa 2.0 m/s 0.0 mm 21.3° 1013.7 hPa 2.3 m/s
08:00 21.0° 1012.7 hPa 1.5 m/s 0.0 mm 22.6° 1011.7 hPa 2.8 m/s 0.3 mm 21.4° 1012.6 hPa 0.2 m/s 0.0 mm 20.4° 1013.2 hPa 1.6 m/s 0.0 mm 20.5° 1012.9 hPa 1.6 m/s 0.0 mm 22.1° 1013.9 hPa 2.0 m/s
11:00 25.3° 1012.6 hPa 2.0 m/s 0.0 mm 25.5° 1011.7 hPa 2.2 m/s 0.3 mm 26.3° 1012.8 hPa 2.3 m/s 0.0 mm 25.1° 1013.0 hPa 1.9 m/s 0.0 mm 25.0° 1012.4 hPa 1.7 m/s 0.0 mm 26.4° 1013.5 hPa 2.6 m/s
14:00 28.4° 1011.9 hPa 1.8 m/s 0.0 mm 28.6° 1011.6 hPa 3.0 m/s 0.3 mm 29.4° 1012.0 hPa 2.2 m/s 0.0 mm 28.3° 1012.5 hPa 2.1 m/s 0.0 mm 27.4° 1011.9 hPa 1.4 m/s 0.0 mm 29.4° 1013.2 hPa 3.0 m/s
17:00 28.6° 1010.9 hPa 2.2 m/s 0.0 mm 28.6° 1009.7 hPa 3.5 m/s 1.1 mm 29.7° 1010.5 hPa 1.9 m/s 0.0 mm 29.4° 1011.5 hPa 3.4 m/s 0.0 mm 27.5° 1011.4 hPa 1.3 m/s 0.0 mm 29.6° 1012.4 hPa 3.2 m/s
20:00 26.6° 1011.4 hPa 2.4 m/s 0.0 mm 28.3° 1010.1 hPa 3.4 m/s 3.6 mm 27.3° 1011.5 hPa 1.0 m/s 0.1 mm 26.4° 1011.7 hPa 3.0 m/s 0.0 mm 25.2° 1011.5 hPa 1.6 m/s 0.0 mm 27.0° 1013.1 hPa 3.0 m/s
23:00 22.4° 1012.7 hPa 1.9 m/s 0.0 mm 24.4° 1011.8 hPa 4.2 m/s 4.7 mm 22.6° 1012.5 hPa 1.9 m/s 0.0 mm 22.2° 1013.5 hPa 1.7 m/s 0.0 mm 21.0° 1012.9 hPa 0.8 m/s 0.0 mm 23.7° 1015.0 hPa 3.0 m/s
 05:35     21:15    Daglengte: 15:40 Vrijdag 21 Jun
02:00 20.1° 1013.4 hPa 1.7 m/s 0.0 mm 22.1° 1012.3 hPa 4.0 m/s 4.7 mm 20.5° 1013.3 hPa 1.3 m/s 0.0 mm 19.0° 1014.0 hPa 1.5 m/s 0.0 mm 19.4° 1013.7 hPa 1.4 m/s 0.0 mm 21.7° 1015.3 hPa 2.3 m/s
05:00 19.3° 1013.5 hPa 1.1 m/s 0.0 mm 21.3° 1012.5 hPa 2.4 m/s 4.7 mm 20.0° 1013.5 hPa 0.9 m/s 0.0 mm 17.7° 1014.0 hPa 0.6 m/s 0.0 mm 18.6° 1013.7 hPa 1.1 m/s 0.0 mm 20.6° 1015.6 hPa 1.6 m/s
08:00 20.7° 1014.5 hPa 1.2 m/s 0.0 mm 21.6° 1013.3 hPa 2.6 m/s 4.7 mm 21.0° 1014.5 hPa 0.9 m/s 0.0 mm 20.4° 1014.7 hPa 0.6 m/s 0.0 mm 19.9° 1015.2 hPa 2.8 m/s 1.6 mm 22.1° 1016.0 hPa 1.5 m/s
11:00 23.6° 1014.9 hPa 1.4 m/s 0.0 mm 20.4° 1014.7 hPa 0.8 m/s 9.3 mm 25.5° 1014.9 hPa 1.2 m/s 0.0 mm 23.3° 1015.9 hPa 1.4 m/s 0.5 mm 26.8° 1015.9 hPa 2.3 m/s
14:00 27.0° 1013.8 hPa 1.1 m/s 0.0 mm 26.4° 1013.1 hPa 1.6 m/s 17.1 mm 29.0° 1013.9 hPa 1.2 m/s 0.0 mm 26.3° 1014.6 hPa 0.2 m/s 0.0 mm 29.8° 1015.1 hPa 2.6 m/s
17:00 28.4° 1012.5 hPa 1.7 m/s 0.0 mm 28.4° 1010.8 hPa 2.6 m/s 17.1 mm 29.7° 1012.6 hPa 1.5 m/s 0.0 mm 26.5° 1013.8 hPa 1.4 m/s 0.0 mm 29.5° 1013.9 hPa 3.2 m/s
20:00 26.7° 1013.0 hPa 2.0 m/s 0.0 mm 28.4° 1010.9 hPa 3.1 m/s 17.1 mm 26.7° 1013.3 hPa 1.9 m/s 0.1 mm 24.6° 1013.8 hPa 1.8 m/s 0.0 mm 27.5° 1014.2 hPa 2.0 m/s
23:00 23.4° 1013.8 hPa 1.6 m/s 0.0 mm 24.0° 1012.6 hPa 4.9 m/s 18.1 mm 23.5° 1014.0 hPa 1.0 m/s 0.0 mm 21.7° 1014.7 hPa 1.1 m/s 0.0 mm 24.8° 1015.3 hPa 0.2 m/s
 05:35     21:15    Daglengte: 15:40 Zaterdag 22 Jun
02:00 21.1° 1014.6 hPa 1.8 m/s 1.8 mm 23.9° 1012.0 hPa 2.3 m/s 19.1 mm 20.7° 1015.1 hPa 2.2 m/s 0.7 mm 20.0° 1015.2 hPa 1.3 m/s 0.7 mm 22.6° 1015.5 hPa 2.0 m/s
05:00 19.5° 1014.8 hPa 1.2 m/s 6.4 mm 20.9° 1011.7 hPa 4.6 m/s 20.4 mm 19.1° 1015.4 hPa 1.0 m/s 2.9 mm 18.4° 1015.5 hPa 0.8 m/s 4.5 mm 21.2° 1014.7 hPa 1.0 m/s
08:00 20.0° 1015.2 hPa 1.9 m/s 6.0 mm 23.5° 1011.4 hPa 2.2 m/s 20.5 mm 19.3° 1016.3 hPa 0.7 m/s 6.1 mm 19.2° 1015.7 hPa 2.2 m/s 2.1 mm 22.4° 1015.1 hPa 0.7 m/s
11:00 21.2° 1015.3 hPa 1.5 m/s 7.4 mm 25.9° 1011.1 hPa 2.4 m/s 20.5 mm 19.6° 1016.5 hPa 1.3 m/s 4.3 mm 20.9° 1015.7 hPa 1.4 m/s 25.8° 1014.3 hPa 2.7 m/s
14:00 22.9° 1015.1 hPa 0.9 m/s 10.2 mm 28.9° 1009.6 hPa 2.7 m/s 20.5 mm 20.2° 1016.1 hPa 0.4 m/s 5.1 mm 22.6° 1015.6 hPa 0.7 m/s 28.3° 1013.2 hPa 2.9 m/s
17:00 21.7° 1014.4 hPa 1.4 m/s 23.8 mm 21.1° 1014.6 hPa 1.3 m/s 28.9° 1012.1 hPa 2.1 m/s 23.8 mm
20:00 20.9° 1014.0 hPa 1.6 m/s 24.5 mm 20.3° 1014.1 hPa 1.6 m/s 27.4° 1013.2 hPa 1.6 m/s 24.5 mm
23:00 19.1° 1014.5 hPa 1.3 m/s 26.4 mm 18.6° 1014.5 hPa 1.3 m/s 24.4° 1015.3 hPa 0.8 m/s 26.4 mm
 05:36     21:16    Daglengte: 15:40 Zondag 23 Jun
02:00 17.4° 1014.9 hPa 1.0 m/s 26.7 mm 17.0° 1014.8 hPa 1.0 m/s 22.3° 1015.6 hPa 0.7 m/s 26.7 mm
05:00 18.2° 1015.0 hPa 0.9 m/s 26.7 mm 17.9° 1015.0 hPa 1.0 m/s 21.1° 1015.2 hPa 0.4 m/s 26.7 mm
08:00 19.1° 1015.2 hPa 0.9 m/s 26.7 mm 18.8° 1015.2 hPa 1.0 m/s 22.9° 1015.6 hPa 0.2 m/s 26.7 mm
11:00 22.6° 1015.3 hPa 1.2 m/s 26.7 mm 22.2° 1015.4 hPa 1.1 m/s 27.6° 1015.3 hPa 1.7 m/s 26.7 mm
14:00 26.1° 1015.5 hPa 1.3 m/s 26.7 mm 25.6° 1015.5 hPa 1.2 m/s 31.3° 1014.9 hPa 2.2 m/s 26.7 mm
17:00 26.0° 1015.2 hPa 1.3 m/s 26.7 mm 25.5° 1015.2 hPa 1.1 m/s 32.0° 1014.5 hPa 2.9 m/s 26.7 mm
20:00 25.8° 1015.0 hPa 1.2 m/s 26.7 mm 25.4° 1015.0 hPa 1.1 m/s 29.6° 1015.6 hPa 2.6 m/s 26.7 mm
23:00 22.8° 1016.5 hPa 1.5 m/s 26.7 mm 22.5° 1016.3 hPa 1.5 m/s 26.6° 1018.7 hPa 1.0 m/s 26.7 mm
 05:36     21:16    Daglengte: 15:40 Maandag 24 Jun
02:00 20.0° 1017.8 hPa 1.8 m/s 26.7 mm 19.6° 1017.6 hPa 1.9 m/s 24.7° 1019.9 hPa 0.6 m/s 26.7 mm
05:00 21.3° 1018.3 hPa 1.6 m/s 26.7 mm 21.1° 1018.2 hPa 1.8 m/s 23.2° 1020.0 hPa 0.4 m/s 26.7 mm
08:00 22.9° 1018.9 hPa 1.5 m/s 26.7 mm 22.7° 1018.7 hPa 1.6 m/s 24.9° 1020.8 hPa 0.8 m/s 26.7 mm
11:00 25.8° 1018.9 hPa 1.0 m/s 26.7 mm 25.5° 1018.8 hPa 1.0 m/s 29.4° 1020.5 hPa 1.6 m/s 26.7 mm
14:00 28.7° 1018.9 hPa 0.5 m/s 26.7 mm 28.3° 1018.8 hPa 0.3 m/s 32.8° 1020.0 hPa 2.4 m/s 26.7 mm
17:00 28.0° 1018.6 hPa 1.1 m/s 26.7 mm 27.6° 1018.5 hPa 0.8 m/s 32.9° 1019.5 hPa 3.3 m/s 26.7 mm
20:00 27.2° 1018.5 hPa 1.5 m/s 26.7 mm 26.9° 1018.3 hPa 1.4 m/s 30.6° 1020.2 hPa 2.4 m/s 26.7 mm
23:00 24.6° 1020.0 hPa 1.8 m/s 26.7 mm 24.3° 1019.7 hPa 1.8 m/s 27.7° 1022.7 hPa 1.4 m/s 26.7 mm
 05:36     21:16    Daglengte: 15:40 Dinsdag 25 Jun
02:00 22.0° 1021.3 hPa 2.3 m/s 26.7 mm 21.7° 1021.1 hPa 2.3 m/s 25.6° 1023.4 hPa 1.9 m/s 26.7 mm
05:00 23.0° 1021.5 hPa 2.0 m/s 26.7 mm 22.9° 1021.4 hPa 2.0 m/s 24.5° 1023.0 hPa 1.1 m/s 26.7 mm
08:00 24.3° 1021.7 hPa 1.7 m/s 26.7 mm 24.1° 1021.6 hPa 1.8 m/s 26.1° 1022.9 hPa 0.9 m/s 26.7 mm
11:00 27.0° 1021.5 hPa 1.6 m/s 26.7 mm 26.8° 1021.5 hPa 1.5 m/s 29.7° 1022.1 hPa 2.6 m/s 26.7 mm
14:00 29.7° 1021.3 hPa 1.4 m/s 26.7 mm 29.5° 1021.3 hPa 1.2 m/s 31.7° 1021.1 hPa 3.3 m/s 26.7 mm
17:00 29.0° 1020.8 hPa 1.6 m/s 26.7 mm 28.7° 1020.8 hPa 1.4 m/s 32.1° 1020.3 hPa 3.2 m/s 26.7 mm
20:00 28.1° 1020.4 hPa 1.8 m/s 26.7 mm 27.9° 1020.3 hPa 1.7 m/s 30.3° 1021.1 hPa 2.6 m/s 26.7 mm
23:00 25.1° 1021.6 hPa 1.8 m/s 26.7 mm 24.9° 1021.5 hPa 1.8 m/s 27.8° 1023.1 hPa 1.7 m/s 26.7 mm
 05:37     21:16    Daglengte: 15:39 Woensdag 26 Jun
02:00 22.3° 1022.7 hPa 1.8 m/s 26.7 mm 21.9° 1022.7 hPa 1.9 m/s 26.3° 1022.7 hPa 1.0 m/s 26.7 mm
05:00 23.6° 1022.5 hPa 1.6 m/s 26.7 mm 23.5° 1022.6 hPa 1.8 m/s 25.1° 1022.0 hPa 0.2 m/s 26.7 mm
08:00 25.2° 1022.4 hPa 1.5 m/s 26.7 mm 25.1° 1022.5 hPa 1.6 m/s 26.8° 1021.8 hPa 0.9 m/s 26.7 mm
11:00 28.0° 1022.3 hPa 1.3 m/s 26.7 mm 27.8° 1022.4 hPa 1.2 m/s 30.3° 1020.8 hPa 2.6 m/s 26.7 mm
14:00 30.7° 1022.1 hPa 1.0 m/s 26.7 mm 30.5° 1022.3 hPa 0.8 m/s 33.0° 1019.8 hPa 3.1 m/s 26.7 mm
20:00 29.6° 1020.2 hPa 1.3 m/s 26.7 mm 29.5° 1020.3 hPa 1.2 m/s 31.2° 1019.4 hPa 2.4 m/s 26.7 mm
 05:37     21:16    Daglengte: 15:39 Donderdag 27 Jun
02:00 23.2° 1021.0 hPa 1.8 m/s 26.7 mm 22.9° 1021.0 hPa 1.9 m/s 26.9° 1021.1 hPa 1.1 m/s 26.7 mm
08:00 26.0° 1020.4 hPa 1.3 m/s 26.7 mm 25.9° 1020.3 hPa 1.3 m/s 27.6° 1021.0 hPa 0.9 m/s 26.7 mm
14:00 32.4° 1018.5 hPa 1.4 m/s 26.7 mm 32.3° 1018.5 hPa 1.3 m/s 34.0° 1018.7 hPa 2.8 m/s 26.7 mm
20:00 31.4° 1015.8 hPa 1.0 m/s 26.7 mm 31.3° 1015.6 hPa 0.9 m/s 32.4° 1018.2 hPa 2.2 m/s 26.7 mm
 05:38     21:16    Daglengte: 15:38 Vrijdag 28 Jun
02:00 23.4° 1016.9 hPa 1.7 m/s 26.7 mm 23.0° 1016.6 hPa 1.8 m/s 28.2° 1020.3 hPa 0.2 m/s 26.7 mm
08:00 26.8° 1016.7 hPa 1.1 m/s 26.7 mm 26.6° 1016.5 hPa 1.1 m/s 28.5° 1018.9 hPa 1.2 m/s 26.7 mm
14:00 34.2° 1015.5 hPa 0.7 m/s 26.7 mm 33.9° 1015.4 hPa 0.5 m/s 37.4° 1017.0 hPa 3.2 m/s 26.7 mm
20:00 32.3° 1013.6 hPa 2.0 m/s 26.7 mm 32.0° 1013.3 hPa 1.9 m/s 35.3° 1016.4 hPa 2.6 m/s 26.7 mm
 05:38     21:16    Daglengte: 15:38 Zaterdag 29 Jun
02:00 25.1° 1014.3 hPa 2.2 m/s 26.7 mm 24.7° 1014.0 hPa 2.3 m/s 29.0° 1018.1 hPa 1.2 m/s 26.7 mm
08:00 22.9° 1013.8 hPa 1.3 m/s 0.0 mm
14:00 30.0° 1012.0 hPa 1.6 m/s 0.0 mm
20:00 28.0° 1012.0 hPa 0.8 m/s 0.0 mm
 05:39     21:15    Daglengte: 15:36 Zondag 30 Jun
02:00 19.8° 1013.9 hPa 1.2 m/s 0.0 mm
08:00 22.2° 1013.8 hPa 1.0 m/s 0.0 mm
14:00 29.3° 1012.3 hPa 1.7 m/s 0.0 mm
20:00 27.7° 1012.2 hPa 0.8 m/s 0.0 mm
 05:39     21:15    Daglengte: 15:36 Maandag 01 Jul
02:00 19.7° 1013.8 hPa 1.4 m/s 0.1 mm
08:00 21.7° 1013.4 hPa 1.2 m/s 0.1 mm
14:00 28.4° 1011.6 hPa 1.2 m/s 0.3 mm
20:00 26.5° 1011.7 hPa 0.6 m/s 0.5 mm
 05:40     21:15    Daglengte: 15:35 Dinsdag 02 Jul
02:00 18.6° 1013.6 hPa 1.8 m/s 0.3 mm
08:00 20.4° 1013.5 hPa 1.6 m/s 0.2 mm
14:00 27.5° 1011.8 hPa 1.3 m/s 0.2 mm
20:00 25.8° 1011.9 hPa 0.7 m/s 0.3 mm
 05:40     21:15    Daglengte: 15:35 Woensdag 03 Jul
02:00 17.7° 1013.9 hPa 1.7 m/s 0.9 mm
08:00 19.7° 1014.1 hPa 1.6 m/s 0.3 mm
14:00 26.6° 1013.0 hPa 1.2 m/s 0.2 mm
20:00 24.9° 1013.3 hPa 0.6 m/s 0.4 mm
 05:41     21:15    Daglengte: 15:34 Donderdag 04 Jul
02:00 17.3° 1015.2 hPa 1.6 m/s 0.4 mm
08:00 19.4° 1015.4 hPa 1.5 m/s 0.2 mm
FMI Hirlam - 7.5 km EWN WRFDA - 12 km DWD ICON - 7 km GFS - 25 km Basiskaart






























































Updatetijd (Europe/Amsterdam) Resolutie Lengte Stap
FMI Hirlam 13:00, 19:00, 01:00, 07:00 7.5 km 49h 1h
EWN WRFDA 10:15, 16:15, 22:15, 04:15 12 km 73h 1h
DWD ICON 11:45, 17:45, 23:45, 05:45 7 km 75h 1h
GFS 08:45, 14:45, 20:45, 02:45 25 km 237h 3h
30+ mm
25-30 mm
20-25 mm
15-20 mm
10-15 mm
6-10 mm
4-6 mm
2-4 mm
1-2 mm
0.5-1 mm
0.2-0.5 mm
0.1-0.2 mm
30+ mm
25-30 mm
20-25 mm
15-20 mm
10-15 mm
6-10 mm
4-6 mm
2-4 mm
1-2 mm
0.5-1 mm
0.2-0.5 mm
0.1-0.2 mm
Sneeuwval
Natte sneeuw
Hagel
Vorst
30+ mm
25-30 mm
20-25 mm
15-20 mm
10-15 mm
6-10 mm
4-6 mm
2-4 mm
1-2 mm
0.5-1 mm
0.2-0.5 mm
0.1-0.2 mm
Sneeuwval
Natte sneeuw
Hagel
Vorst
Onweer
50 mm
40 mm
30 mm
26 mm
22 mm
18 mm
14 mm
10 mm
9 mm
8 mm
7 mm
6 mm
5 mm
4.5 mm
4 mm
3.5 mm
3 mm
2.5 mm
2 mm
1.5 mm
1 mm
0.8 mm
0.6 mm
0.4 mm
0.2 mm
0.05 mm
35°
30°
25°
20°
15°
10°
-5°
-10°
-15°
-20°
-25°
-30°
-35°
33> m/s
29 m/s
25 m/s
21 m/s
17 m/s
14 m/s
11 m/s
8 m/s
5 m/s
3 m/s
0 m/s
2600 J/kg
2400 J/kg
2200 J/kg
2000 J/kg
1800 J/kg
1600 J/kg
1400 J/kg
1200 J/kg
1000 J/kg
800 J/kg
600 J/kg
400 J/kg
200 J/kg
70 dBZ
65 dBZ
60 dBZ
55 dBZ
50 dBZ
45 dBZ
40 dBZ
35 dBZ
30 dBZ
25 dBZ
20 dBZ
15 dBZ
10 dBZ
5 dBZ
-1 K
-2 K
-3 K
-4 K
-5 K
-6 K
-7 K
-8 K
-9 K
950 m²/s²
900 m²/s²
850 m²/s²
800 m²/s²
750 m²/s²
700 m²/s²
650 m²/s²
600 m²/s²
550 m²/s²
500 m²/s²
450 m²/s²
400 m²/s²
350 m²/s²
300 m²/s²
250 m²/s²
200 m²/s²
150 m²/s²
100 m²/s²
46 m/s
44 m/s
42 m/s
40 m/s
38 m/s
36 m/s
34 m/s
32 m/s
30 m/s
28 m/s
26 m/s
24 m/s
22 m/s
20 m/s
16 m/s
12 m/s
8 m/s
4 m/s
30 m/s
28 m/s
26 m/s
24 m/s
22 m/s
20 m/s
18 m/s
16 m/s
14 m/s
12 m/s
10 m/s
8 m/s
6 m/s
4 m/s
2 m/s
3.0
2.8
2.6
2.4
2.2
2.0
1.8
1.6
1.4
1.2
1.0
0.8
0.6
0.4
0.2
15
14
13
12
11
10
9
8
7
6
5
4
3
2
1
90%
80%
70%
60%
50%
40%
30%
20%
10%
42
40
38
36
34
32
30
28
26
24
22
20
18
16
14
12
90+ cm
80-90 cm
70-80 cm
60-70 cm
50-60 cm
40-50 cm
30-40 cm
20-30 cm
10-20 cm
1-10 cm
Sneeuwval
Natte sneeuw
Regen
>120 mm
115 mm
110 mm
105 mm
100 mm
95 mm
90 mm
85 mm
80 mm
75 mm
70 mm
65 mm
60 mm
55 mm
50 mm
45 mm
45 mm
40 mm
35 mm
30 mm
25 mm
20 mm
15 mm
10 mm
5 mm
0.1 mm
960 hPa
880 hPa
800 hPa
720 hPa
640 hPa
560 hPa
584 gpdm
568 gpdm
552 gpdm
536 gpdm
520 gpdm
504 gpdm
488 gpdm
Extreem zwaar Noodweer Kans op onweer
15% 15% 5% 50% 15%

Dag




Kaart






35°
30°
25°
20°
15°
10°